Regional Weather Roundup
Issued by NWS

Home | Current Version | Previous Version | Graphics & Text | Print | Product List | Glossary On
Versions: 1 2 3 4 5 6 7 8 9 10 11 12 13 14 15 16 17 18 19 20 21 22 23 24 25 26 27 28 29 30 31 32 33 34 35 36 37 38 39 40 41 42 43 44 45 46 47 48 49 50
000
ASUS43 KLMK 060210
RWRKY
KENTUCKY REGIONAL WEATHER ROUNDUP
NATIONAL WEATHER SERVICE LOUISVILLE KY
1000 PM EDT SUN JUL 05 2015

NOTE "FAIR" INDICATES FEW OR NO CLOUDS BELOW 12,000 FEET
WITH NO SIGNIFICANT WEATHER AND/OR OBSTRUCTIONS TO VISIBILITY.

KYZ001>023-026-027-061>063-070>075-060300-
WESTERN AND SOUTH CENTRAL KENTUCKY

CITY           SKY/WX    TMP DP  RH WIND       PRES   REMARKS
PADUCAH        CLEAR     74  69  85 CALM      30.04R
HENDERSON      PTCLDY    77  70  78 CALM      30.04R
OWENSBORO      MOCLDY    80  70  71 S3        30.06R
HOPKINSVILLE   CLEAR     77  68  73 CALM      30.06R
BOWLING GREEN  CLEAR     76  68  76 CALM      30.07R
GLASGOW        CLEAR     71  71  99 CALM      30.08R
$$

KYZ024-025-028>034-038-045-046-053-060300-
NORTH CENTRAL KENTUCKY

CITY           SKY/WX    TMP DP  RH WIND       PRES   REMARKS
LOUISVILLE/SDF PTCLDY    76  63  64 NE3       30.06R
LOUISVILLE/LOU CLEAR     74  64  71 CALM      30.06S
FORT KNOX      MOCLDY    72  66  83 E2        30.06R
$$

KYZ035>037-039>044-047>052-055>060-089>105-060300-
NORTHEAST KENTUCKY

CITY           SKY/WX    TMP DP  RH WIND       PRES   REMARKS
LEXINGTON      CLEAR     69  64  84 NE7       30.08R
COVINGTON      MOCLDY    72  61  68 NE3       30.07F
FRANKFORT      PTCLDY    70  64  81 CALM      30.06R
$$

KYZ054-064>069-076>088-106>120-060300-
SOUTHEAST KENTUCKY

CITY           SKY/WX    TMP DP  RH WIND       PRES   REMARKS
JACKSON        LGT RAIN  69  68  96 NW6       30.09R FOG
LONDON         CLEAR     70  64  81 CALM      30.09R
SOMERSET       MOCLDY    68  68 100 CALM      30.10R
MIDDLESBORO    CLOUDY    69  68  96 CALM      30.10R
MONTICELLO     PTCLDY    69  69 100 CALM      30.12R
$$



USA.gov is the U.S. government's official web portal to all federal, state and local government web resources and services.